JST771 YPAD-YMML

Flight info

Callsign JST771
Flight time 0h 56m
Altitude 35000
Route AD V255 BENDO Y12 ARBEY H119 ML
Aircraft A320/M-SDE3FGHIRWY/LB1

Departure

Time 2026-05-06 15:19
Airport Adelaide International Airport (YPAD)

Arrival

Time 2026-05-06 16:15
Airport Melbourne Airport (YMML)
Time Latitude Longitude Altitude Speed Heading
2026-05-06 14:32 -34.93803 138.54029 27 ft 0 kts 320°
2026-05-06 15:09 -34.93811 138.54036 27 ft 3 kts 321°
2026-05-06 15:09 -34.93827 138.54051 27 ft 3 kts 325°
2026-05-06 15:09 -34.93844 138.54065 27 ft 3 kts 332°
2026-05-06 15:10 -34.93862 138.54075 27 ft 3 kts 347°
2026-05-06 15:10 -34.93880 138.54077 27 ft 3 kts 23°
2026-05-06 15:10 -34.93890 138.54070 26 ft 1 kts 50°
2026-05-06 15:10 -34.93892 138.54067 26 ft 0 kts 50°
2026-05-06 15:14 -34.93887 138.54074 26 ft 2 kts 50°
2026-05-06 15:14 -34.93878 138.54092 27 ft 3 kts 72°
2026-05-06 15:14 -34.93885 138.54120 27 ft 4 kts 121°
2026-05-06 15:15 -34.93909 138.54155 27 ft 6 kts 136°
2026-05-06 15:15 -34.93949 138.54195 27 ft 9 kts 140°
2026-05-06 15:15 -34.94005 138.54252 27 ft 11 kts 140°
2026-05-06 15:15 -34.94072 138.54288 28 ft 12 kts 185°
2026-05-06 15:16 -34.94109 138.54258 28 ft 0 kts 229°
2026-05-06 15:18 -34.94113 138.54252 28 ft 7 kts 229°
2026-05-06 15:18 -34.94300 138.53991 26 ft 76 kts 229°
2026-05-06 15:18 -34.94773 138.53297 24 ft 129 kts 229°
2026-05-06 15:18 -34.95482 138.52349 107 ft 163 kts 224°
2026-05-06 15:19 -34.96217 138.51367 880 ft 150 kts 223°
2026-05-06 15:19 -34.96964 138.50520 1487 ft 147 kts 210°
2026-05-06 15:19 -34.97937 138.50157 2010 ft 151 kts 181°
2026-05-06 15:19 -34.98984 138.50468 2509 ft 163 kts 158°
2026-05-06 15:20 -34.99945 138.51322 2868 ft 186 kts 137°
2026-05-06 15:20 -35.00587 138.52838 3134 ft 222 kts 109°
2026-05-06 15:20 -35.00835 138.54814 3487 ft 250 kts 105°
2026-05-06 15:20 -35.01157 138.57003 3956 ft 269 kts 107°
2026-05-06 15:21 -35.01533 138.59180 5210 ft 257 kts 108°
2026-05-06 15:21 -35.01944 138.61374 5836 ft 272 kts 110°
2026-05-06 15:21 -35.02480 138.63586 6627 ft 276 kts 116°
2026-05-06 15:21 -35.03111 138.65808 7334 ft 284 kts 117°
2026-05-06 15:22 -35.03780 138.68127 8143 ft 289 kts 116°
2026-05-06 15:22 -35.04438 138.70475 8902 ft 295 kts 116°
2026-05-06 15:22 -35.05084 138.72878 9655 ft 300 kts 115°
2026-05-06 15:22 -35.05723 138.75328 10301 ft 312 kts 114°
2026-05-06 15:23 -35.06393 138.77936 10697 ft 328 kts 114°
2026-05-06 15:23 -35.07088 138.80671 10869 ft 351 kts 113°
2026-05-06 15:23 -35.07817 138.83588 11361 ft 361 kts 112°
2026-05-06 15:23 -35.08546 138.86555 11997 ft 366 kts 112°
2026-05-06 15:24 -35.09277 138.89549 12685 ft 369 kts 113°
2026-05-06 15:24 -35.10016 138.92567 13341 ft 372 kts 114°
2026-05-06 15:24 -35.10763 138.95602 14007 ft 375 kts 114°
2026-05-06 15:24 -35.11516 138.98654 14604 ft 378 kts 114°
2026-05-06 15:25 -35.12280 139.01741 15167 ft 381 kts 114°
2026-05-06 15:25 -35.13042 139.04818 15709 ft 385 kts 114°
2026-05-06 15:25 -35.13821 139.07965 16270 ft 388 kts 114°
2026-05-06 15:25 -35.14605 139.11144 16788 ft 393 kts 114°
2026-05-06 15:26 -35.15394 139.14351 17322 ft 396 kts 113°
2026-05-06 15:26 -35.16191 139.17587 17864 ft 400 kts 113°
2026-05-06 15:26 -35.16993 139.20852 18412 ft 404 kts 113°
2026-05-06 15:26 -35.17805 139.24160 18927 ft 407 kts 113°
2026-05-06 15:27 -35.18617 139.27482 19432 ft 410 kts 113°
2026-05-06 15:27 -35.19441 139.30843 19945 ft 413 kts 113°
2026-05-06 15:27 -35.20269 139.34217 20469 ft 415 kts 113°
2026-05-06 15:27 -35.21097 139.37609 20974 ft 418 kts 113°
2026-05-06 15:28 -35.21930 139.41023 21470 ft 420 kts 112°
2026-05-06 15:28 -35.22765 139.44466 21948 ft 423 kts 112°
2026-05-06 15:28 -35.23602 139.47925 22410 ft 425 kts 112°
2026-05-06 15:28 -35.24505 139.51366 22868 ft 424 kts 118°
2026-05-06 15:29 -35.25703 139.54657 23334 ft 424 kts 121°
2026-05-06 15:29 -35.26938 139.57959 23762 ft 427 kts 121°
2026-05-06 15:29 -35.28172 139.61268 24168 ft 430 kts 121°
2026-05-06 15:29 -35.29414 139.64602 24545 ft 432 kts 121°
2026-05-06 15:30 -35.30662 139.67960 24915 ft 435 kts 121°
2026-05-06 15:30 -35.31920 139.71349 25288 ft 437 kts 121°
2026-05-06 15:30 -35.33179 139.74735 25669 ft 439 kts 121°
2026-05-06 15:30 -35.34437 139.78117 25996 ft 443 kts 121°
2026-05-06 15:31 -35.35713 139.81559 26343 ft 445 kts 121°
2026-05-06 15:31 -35.36999 139.85039 26678 ft 448 kts 121°
2026-05-06 15:31 -35.38284 139.88522 27048 ft 450 kts 121°
2026-05-06 15:32 -35.40868 139.95540 27756 ft 455 kts 121°
2026-05-06 15:32 -35.42172 139.99092 28138 ft 457 kts 121°
2026-05-06 15:32 -35.43477 140.02645 28486 ft 460 kts 121°
2026-05-06 15:32 -35.44795 140.06231 28843 ft 462 kts 121°
2026-05-06 15:33 -35.46118 140.09842 29180 ft 464 kts 121°
2026-05-06 15:33 -35.47442 140.13454 29523 ft 466 kts 121°
2026-05-06 15:33 -35.48776 140.17099 29938 ft 467 kts 121°
2026-05-06 15:33 -35.50098 140.20722 30457 ft 466 kts 121°
2026-05-06 15:34 -35.51420 140.24351 30863 ft 465 kts 121°
2026-05-06 15:34 -35.52731 140.27960 31300 ft 463 kts 121°
2026-05-06 15:34 -35.54038 140.31563 31758 ft 461 kts 121°
2026-05-06 15:34 -35.55331 140.35110 32210 ft 459 kts 122°
2026-05-06 15:35 -35.56648 140.38717 32687 ft 457 kts 122°
2026-05-06 15:35 -35.57927 140.42226 33191 ft 455 kts 122°
2026-05-06 15:35 -35.59216 140.45772 33623 ft 454 kts 122°
2026-05-06 15:35 -35.60505 140.49322 34044 ft 453 kts 122°
2026-05-06 15:36 -35.61781 140.52845 34475 ft 452 kts 122°
2026-05-06 15:36 -35.63059 140.56383 34773 ft 452 kts 122°
2026-05-06 15:36 -35.64334 140.59921 35025 ft 454 kts 121°
2026-05-06 15:36 -35.65614 140.63484 35242 ft 457 kts 121°
2026-05-06 15:37 -35.66906 140.67076 35344 ft 461 kts 121°
2026-05-06 15:37 -35.68213 140.70704 35324 ft 468 kts 121°
2026-05-06 15:37 -35.70859 140.78065 35340 ft 471 kts 121°
2026-05-06 15:38 -35.73501 140.85442 35323 ft 471 kts 121°
2026-05-06 15:38 -35.76150 140.92847 35325 ft 473 kts 121°
2026-05-06 15:39 -35.78790 141.00262 35331 ft 473 kts 121°
2026-05-06 15:39 -35.81435 141.07688 35335 ft 474 kts 121°
2026-05-06 15:40 -35.84082 141.15152 35349 ft 475 kts 121°
2026-05-06 15:40 -35.86719 141.22578 35337 ft 476 kts 121°
2026-05-06 15:41 -35.89365 141.30065 35334 ft 477 kts 121°
2026-05-06 15:41 -35.92009 141.37592 35351 ft 479 kts 121°
2026-05-06 15:42 -35.94662 141.45143 35336 ft 480 kts 121°
2026-05-06 15:42 -35.97315 141.52704 35333 ft 480 kts 121°
2026-05-06 15:43 -35.99952 141.60245 35333 ft 480 kts 121°
2026-05-06 15:43 -36.02596 141.67828 35330 ft 481 kts 121°
2026-05-06 15:44 -36.05235 141.75419 35327 ft 481 kts 121°
2026-05-06 15:44 -36.07880 141.83018 35326 ft 482 kts 121°
2026-05-06 15:45 -36.10512 141.90624 35298 ft 481 kts 121°
2026-05-06 15:45 -36.13137 141.98238 35301 ft 482 kts 121°
2026-05-06 15:46 -36.15770 142.05883 35325 ft 483 kts 121°
2026-05-06 15:46 -36.18404 142.13536 35307 ft 484 kts 121°
2026-05-06 15:47 -36.21044 142.21220 35298 ft 485 kts 121°
2026-05-06 15:47 -36.23232 142.27603 35300 ft 486 kts 121°
2026-05-06 15:48 -36.25868 142.35349 35288 ft 487 kts 121°
2026-05-06 15:48 -36.28492 142.43095 35283 ft 488 kts 120°
2026-05-06 15:49 -36.31127 142.50857 35283 ft 489 kts 121°
2026-05-06 15:49 -36.33776 142.58650 35301 ft 493 kts 120°
2026-05-06 15:50 -36.36434 142.66495 35289 ft 494 kts 120°
2026-05-06 15:50 -36.39084 142.74386 35290 ft 495 kts 120°
2026-05-06 15:51 -36.41722 142.82261 35280 ft 500 kts 119°
2026-05-06 15:51 -36.44205 142.89616 35260 ft 514 kts 119°
2026-05-06 15:52 -36.46944 142.97801 35258 ft 517 kts 119°
2026-05-06 15:52 -36.49691 143.06092 35256 ft 520 kts 118°
2026-05-06 15:53 -36.52449 143.14430 35260 ft 521 kts 118°
2026-05-06 15:53 -36.55208 143.22762 35259 ft 522 kts 118°
2026-05-06 15:54 -36.56759 143.26819 35263 ft 513 kts 129°
2026-05-06 15:54 -36.58824 143.30311 35242 ft 495 kts 136°
2026-05-06 15:54 -36.63118 143.36978 34874 ft 492 kts 136°
2026-05-06 15:55 -36.65273 143.40314 33757 ft 502 kts 137°
2026-05-06 15:55 -36.67465 143.43705 33011 ft 502 kts 137°
2026-05-06 15:55 -36.69620 143.47052 32292 ft 500 kts 137°
2026-05-06 15:55 -36.71785 143.50429 31596 ft 495 kts 137°
2026-05-06 15:56 -36.73921 143.53781 30460 ft 492 kts 138°
2026-05-06 15:56 -36.76005 143.57064 29844 ft 474 kts 138°
2026-05-06 15:56 -36.78012 143.60241 29238 ft 457 kts 139°
2026-05-06 15:56 -36.79951 143.63310 28644 ft 442 kts 139°
2026-05-06 15:57 -36.81828 143.66264 28082 ft 428 kts 140°
2026-05-06 15:57 -36.83663 143.69132 27526 ft 420 kts 140°
2026-05-06 15:57 -36.85499 143.71974 26985 ft 420 kts 140°
2026-05-06 15:57 -36.87305 143.74772 26456 ft 418 kts 140°
2026-05-06 15:58 -36.89140 143.77626 25912 ft 422 kts 139°
2026-05-06 15:58 -36.90984 143.80505 25367 ft 424 kts 139°
2026-05-06 15:58 -36.92815 143.83382 24837 ft 425 kts 139°
2026-05-06 15:58 -36.94650 143.86273 24325 ft 425 kts 139°
2026-05-06 15:59 -36.96499 143.89194 23802 ft 426 kts 139°
2026-05-06 15:59 -36.98328 143.92089 23239 ft 425 kts 139°
2026-05-06 15:59 -37.00154 143.94984 22738 ft 422 kts 139°
2026-05-06 15:59 -37.01963 143.97860 22241 ft 419 kts 139°
2026-05-06 16:00 -37.03763 144.00718 21757 ft 416 kts 139°
2026-05-06 16:00 -37.05544 144.03545 21248 ft 413 kts 139°
2026-05-06 16:00 -37.07317 144.06358 20772 ft 410 kts 139°
2026-05-06 16:00 -37.09086 144.09166 20232 ft 409 kts 139°
2026-05-06 16:01 -37.10848 144.11961 19701 ft 407 kts 138°
2026-05-06 16:01 -37.12594 144.14732 19155 ft 405 kts 138°
2026-05-06 16:01 -37.14335 144.17498 18620 ft 403 kts 138°
2026-05-06 16:01 -37.16074 144.20262 18014 ft 401 kts 138°
2026-05-06 16:02 -37.17788 144.22992 17475 ft 397 kts 137°
2026-05-06 16:02 -37.19455 144.25653 16962 ft 392 kts 136°
2026-05-06 16:02 -37.21130 144.28329 16403 ft 389 kts 135°
2026-05-06 16:02 -37.22790 144.30983 15860 ft 385 kts 135°
2026-05-06 16:03 -37.24435 144.33616 15328 ft 381 kts 135°
2026-05-06 16:03 -37.26062 144.36217 14768 ft 377 kts 134°
2026-05-06 16:03 -37.27679 144.38804 14170 ft 370 kts 134°
2026-05-06 16:03 -37.29231 144.41297 13550 ft 354 kts 134°
2026-05-06 16:04 -37.30711 144.43685 13066 ft 337 kts 134°
2026-05-06 16:04 -37.32123 144.45962 12597 ft 326 kts 134°
2026-05-06 16:04 -37.33518 144.48202 12122 ft 325 kts 135°
2026-05-06 16:04 -37.34916 144.50436 11671 ft 325 kts 134°
2026-05-06 16:05 -37.36313 144.52668 11206 ft 325 kts 134°
2026-05-06 16:05 -37.37715 144.54913 10738 ft 325 kts 134°
2026-05-06 16:05 -37.39081 144.57114 10423 ft 320 kts 134°
2026-05-06 16:05 -37.40424 144.59290 10293 ft 310 kts 134°
2026-05-06 16:06 -37.41727 144.61402 10147 ft 301 kts 134°
2026-05-06 16:06 -37.42995 144.63454 9985 ft 293 kts 135°
2026-05-06 16:06 -37.44238 144.65461 9701 ft 289 kts 135°
2026-05-06 16:06 -37.45475 144.67453 9377 ft 287 kts 135°
2026-05-06 16:07 -37.46702 144.69428 9057 ft 286 kts 135°
2026-05-06 16:07 -37.47922 144.71394 8730 ft 284 kts 135°
2026-05-06 16:07 -37.49130 144.73347 8365 ft 280 kts 135°
2026-05-06 16:07 -37.50299 144.75248 7966 ft 271 kts 136°
2026-05-06 16:08 -37.51442 144.77104 7518 ft 265 kts 136°
2026-05-06 16:08 -37.52549 144.78902 7216 ft 255 kts 136°
2026-05-06 16:08 -37.53629 144.80652 6739 ft 252 kts 136°
2026-05-06 16:08 -37.54708 144.82396 6250 ft 251 kts 136°
2026-05-06 16:09 -37.55771 144.84121 5755 ft 249 kts 136°
2026-05-06 16:09 -37.56816 144.85826 5532 ft 241 kts 137°
2026-05-06 16:09 -37.57834 144.87482 5294 ft 238 kts 137°
2026-05-06 16:09 -37.58848 144.89126 4961 ft 238 kts 137°
2026-05-06 16:10 -37.59884 144.90793 4275 ft 245 kts 136°
2026-05-06 16:10 -37.60935 144.92490 3732 ft 245 kts 136°
2026-05-06 16:10 -37.61927 144.94115 3559 ft 230 kts 136°
2026-05-06 16:10 -37.62889 144.95698 3449 ft 223 kts 136°
2026-05-06 16:11 -37.63827 144.97234 3342 ft 219 kts 136°
2026-05-06 16:11 -37.64739 144.98723 3248 ft 211 kts 137°
2026-05-06 16:11 -37.65796 144.99769 3173 ft 181 kts 173°
2026-05-06 16:11 -37.66928 144.99613 2884 ft 159 kts 221°
2026-05-06 16:12 -37.67350 144.98442 2642 ft 153 kts 274°
2026-05-06 16:12 -37.66963 144.97196 2443 ft 152 kts 283°
2026-05-06 16:12 -37.66883 144.95962 2245 ft 139 kts 264°
2026-05-06 16:12 -37.66814 144.94768 2053 ft 131 kts 269°
2026-05-06 16:13 -37.66743 144.93682 1890 ft 121 kts 268°
2026-05-06 16:13 -37.66680 144.92640 1716 ft 118 kts 269°
2026-05-06 16:13 -37.66619 144.91613 1539 ft 119 kts 269°
2026-05-06 16:13 -37.66558 144.90555 1368 ft 123 kts 270°
2026-05-06 16:14 -37.66495 144.89470 1181 ft 126 kts 269°
2026-05-06 16:14 -37.66430 144.88378 1009 ft 125 kts 270°
2026-05-06 16:14 -37.66369 144.87279 845 ft 127 kts 271°
2026-05-06 16:14 -37.66305 144.86156 662 ft 129 kts 272°
2026-05-06 16:15 -37.66234 144.85034 501 ft 127 kts 272°
2026-05-06 16:15 -37.66187 144.83946 411 ft 113 kts 270°
2026-05-06 16:15 -37.66140 144.83206 413 ft 34 kts 275°
2026-05-06 16:15 -37.66151 144.82992 409 ft 24 kts 254°
2026-05-06 16:16 -37.66224 144.82793 400 ft 24 kts 242°
2026-05-06 16:16 -37.66335 144.82675 391 ft 22 kts 179°
2026-05-06 16:16 -37.66440 144.82794 386 ft 20 kts 102°
2026-05-06 16:16 -37.66456 144.82975 389 ft 21 kts 95°
2026-05-06 16:17 -37.66467 144.83147 396 ft 19 kts 94°
2026-05-06 16:17 -37.66477 144.83307 401 ft 18 kts 95°
2026-05-06 16:17 -37.66486 144.83469 404 ft 19 kts 94°
2026-05-06 16:17 -37.66496 144.83644 404 ft 21 kts 94°
2026-05-06 16:18 -37.66508 144.83825 404 ft 18 kts 95°
2026-05-06 16:18 -37.66517 144.83972 404 ft 17 kts 94°
2026-05-06 16:18 -37.66548 144.84112 403 ft 18 kts 133°
2026-05-06 16:18 -37.66674 144.84171 392 ft 22 kts 172°
2026-05-06 16:19 -37.66840 144.84200 390 ft 26 kts 173°
2026-05-06 16:19 -37.67004 144.84233 386 ft 24 kts 173°
2026-05-06 16:19 -37.67149 144.84259 383 ft 17 kts 172°
2026-05-06 16:19 -37.67191 144.84266 382 ft 0 kts 172°
2026-05-06 16:20 -37.67193 144.84266 382 ft 1 kts 172°
2026-05-06 16:20 -37.67206 144.84273 382 ft 2 kts 151°
2026-05-06 16:20 -37.67220 144.84289 382 ft 3 kts 134°
2026-05-06 16:21 -37.67237 144.84319 382 ft 5 kts 127°
2026-05-06 16:21 -37.67258 144.84353 382 ft 5 kts 129°
2026-05-06 16:21 -37.67268 144.84369 382 ft 3 kts 129°
2026-05-06 16:21 -37.67283 144.84392 382 ft 0 kts 129°